FW0880 Weather Reports


time (UTC)temp
C
wind
direction
speed
KPH
gust
KPH
rain 1hr
cm
rain 24hr
cm
rain mn
cm
humidity
%
barometer
mb
20260507113520 23 17 0.0 3.2 0.00 0.00 0.00 72 1007.0
20260507113129 23 17 0.0 3.2 0.00 0.00 0.00 72 1007.0
20260507112620 23 17 0.0 3.2 0.00 0.00 0.00 72 1007.0
20260507112007 23 17 1.6 4.8 0.00 0.00 0.00 72 1007.0
20260507111532 23 17 1.6 4.8 0.00 0.00 0.00 72 1007.0
20260507111052 23 18 0.0 4.8 0.00 0.00 0.00 73 1006.8
20260507110610 23 18 3.2 4.8 0.00 0.00 0.00 74 1006.8
20260507110010 23 28 1.6 4.8 0.00 0.00 0.00 76 1006.8
20260507105527 23 28 1.6 3.2 0.00 0.00 0.00 76 1006.7
20260507105053 23 28 1.6 4.8 0.00 0.00 0.00 76 1006.7
20260507104610 23 28 0.0 4.8 0.00 0.00 0.00 77 1006.7
20260507104012 23 28 3.2 4.8 0.00 0.00 0.00 77 1006.7
20260507103521 23 32 1.6 4.8 0.00 0.00 0.00 77 1006.8
20260507103103 24 32 1.6 4.8 0.00 0.00 0.00 78 1006.8
20260507102619 24 32 3.2 4.8 0.00 0.00 0.00 78 1006.8
20260507102020 24 100 0.0 3.2 0.00 0.00 0.00 78 1006.8
20260507101542 24 100 0.0 3.2 0.00 0.00 0.00 78 1006.8
20260507101055 24 100 0.0 0.0 0.00 0.00 0.00 78 1006.8
20260507100610 24 101 0.0 0.0 0.00 0.00 0.00 78 1006.8
20260507100011 24 101 0.0 0.0 0.00 0.00 0.00 78 1006.9
20260507095526 24 101 0.0 1.6 0.00 0.00 0.00 78 1007.0
20260507095052 24 101 0.0 1.6 0.00 0.00 0.00 79 1007.1
20260507094617 24 101 0.0 4.8 0.00 0.00 0.00 79 1007.1
20260507094135 24 101 1.6 4.8 0.00 0.00 0.00 79 1007.1
20260507093517 25 93 1.6 4.8 0.00 0.00 0.00 80 1007.1
20260507093104 25 105 0.0 0.0 0.00 0.00 0.00 81 1007.2
20260507092627 25 105 0.0 0.0 0.00 0.00 0.00 81 1007.3
20260507092016 25 105 0.0 3.2 0.00 0.00 0.00 81 1007.4
20260507091537 25 105 0.0 4.8 0.00 0.00 0.00 81 1007.4
20260507091105 25 105 1.6 3.2 0.00 0.00 0.00 81 1007.4
20260507090619 25 105 1.6 4.8 0.00 0.00 0.00 81 1007.4
20260507090038 25 105 1.6 4.8 0.00 0.00 0.00 81 1007.5
20260507085619 25 105 0.0 4.8 0.00 0.00 0.00 81 1007.5
20260507085131 25 105 0.0 4.8 0.00 0.00 0.00 81 1007.6
20260507084514 25 111 1.6 4.8 0.00 0.00 0.00 81 1007.7
20260507084047 25 103 0.0 4.8 0.00 0.00 0.00 81 1007.9
20260507083602 25 103 0.0 4.8 0.00 0.00 0.00 81 1007.9
20260507083014 25 99 1.6 3.2 0.00 0.00 0.00 81 1008.1
20260507082535 25 99 0.0 1.6 0.00 0.00 0.00 81 1008.2
20260507082056 25 99 0.0 3.2 0.00 0.00 0.00 81 1008.2
20260507081612 25 99 0.0 4.8 0.00 0.00 0.00 81 1008.3
20260507081015 25 99 1.6 4.8 0.00 0.00 0.00 81 1008.4
20260507080530 25 99 0.0 3.2 0.00 0.00 0.00 81 1008.4
20260507080054 25 99 0.0 1.6 0.00 0.00 0.00 81 1008.4
20260507075627 25 99 0.0 0.0 0.00 0.00 0.00 80 1008.5
20260507075014 25 99 0.0 0.0 0.00 0.00 0.00 81 1008.7
20260507074538 25 99 0.0 0.0 0.00 0.00 0.00 81 1008.6
20260507074101 25 100 0.0 0.0 0.00 0.00 0.00 81 1008.7
20260507073618 25 100 0.0 0.0 0.00 0.00 0.00 81 1008.8
20260507073007 25 100 0.0 0.0 0.00 0.00 0.00 80 1008.8
20260507072530 25 100 0.0 0.0 0.00 0.00 0.00 81 1008.8
20260507072102 25 100 0.0 0.0 0.00 0.00 0.00 81 1008.8
20260507071617 25 100 0.0 0.0 0.00 0.00 0.00 80 1008.9
20260507071013 25 100 0.0 0.0 0.00 0.00 0.00 80 1009.0
20260507070530 25 100 0.0 1.6 0.00 0.00 0.00 80 1008.9
20260507070053 25 100 0.0 1.6 0.00 0.00 0.00 80 1009.0
20260507065615 25 100 0.0 1.6 0.00 0.00 0.00 80 1009.0
20260507065013 25 100 0.0 3.2 0.00 0.00 0.00 80 1009.0
20260507064538 25 100 0.0 1.6 0.00 0.00 0.00 80 1009.0
20260507064051 25 100 0.0 1.6 0.00 0.00 0.00 80 1009.2
20260507063610 26 100 0.0 3.2 0.00 0.00 0.00 80 1009.2
20260507063007 26 100 0.0 3.2 0.00 0.00 0.00 80 1009.2
20260507062524 26 100 0.0 1.6 0.00 0.00 0.00 80 1009.2
20260507062057 26 100 0.0 3.2 0.00 0.00 0.00 80 1009.3
20260507061614 26 100 0.0 3.2 0.00 0.00 0.00 80 1009.3
20260507061004 26 100 0.0 3.2 0.00 0.00 0.00 80 1009.3
20260507060521 26 100 0.0 4.8 0.00 0.00 0.00 80 1009.4
20260507060050 26 100 0.0 4.8 0.00 0.00 0.00 80 1009.4
20260507055609 26 92 0.0 3.2 0.00 0.00 0.00 80 1009.5
20260507055008 26 92 0.0 1.6 0.00 0.00 0.00 80 1009.6
20260507054522 26 91 0.0 1.6 0.00 0.00 0.00 80 1009.6
20260507054103 26 91 0.0 1.6 0.00 0.00 0.00 80 1009.7
20260507053619 26 91 0.0 1.6 0.00 0.00 0.00 80 1009.7
20260507053008 26 91 0.0 3.2 0.00 0.00 0.00 80 1009.7
20260507052527 26 91 0.0 3.2 0.00 0.00 0.00 80 1009.7
20260507052049 26 91 0.0 3.2 0.00 0.00 0.00 80 1009.7
20260507051612 26 91 0.0 4.8 0.00 0.00 0.00 80 1009.6
20260507051022 26 90 1.6 4.8 0.00 0.00 0.00 80 1009.6
20260507050535 26 90 1.6 4.8 0.00 0.00 0.00 80 1009.6
20260507050057 26 91 0.0 1.6 0.00 0.00 0.00 80 1009.6
20260507045614 26 91 0.0 3.2 0.00 0.00 0.00 80 1009.6
20260507045025 26 91 0.0 3.2 0.00 0.00 0.00 80 1009.6
20260507044555 26 91 0.0 3.2 0.00 0.00 0.00 79 1009.6
20260507044016 26 91 0.0 4.8 0.00 0.00 0.00 79 1009.6
20260507043529 26 91 0.0 4.8 0.00 0.00 0.00 79 1009.6
20260507043100 26 150 0.0 4.8 0.00 0.00 0.00 79 1009.6
20260507042604 26 157 0.0 4.8 0.00 0.00 0.00 79 1009.5
20260507042009 26 161 0.0 8.0 0.00 0.00 0.00 80 1009.5
20260507041525 26 145 3.2 8.0 0.00 0.00 0.00 80 1009.4
20260507041045 26 157 4.8 8.0 0.00 0.00 0.00 80 1009.4
20260507040611 26 189 3.2 12.9 0.00 0.00 0.00 80 1009.4
20260507040005 26 196 6.4 11.3 0.00 0.00 0.00 80 1009.4
20260507035524 26 183 6.4 11.3 0.00 0.00 0.00 80 1009.3
20260507035103 26 199 3.2 9.7 0.00 0.00 0.00 80 1009.3
20260507034620 26 197 6.4 11.3 0.00 0.00 0.00 80 1009.3
20260507034012 26 178 6.4 11.3 0.00 0.00 0.00 80 1009.3
20260507033531 26 178 4.8 11.3 0.00 0.00 0.00 80 1009.3
20260507033101 26 254 6.4 11.3 0.00 0.00 0.00 80 1009.3
20260507032618 26 187 4.8 12.9 0.00 0.00 0.00 81 1009.3
20260507032021 26 183 6.4 12.9 0.00 0.00 0.00 81 1009.2
20260507031537 26 203 6.4 16.1 0.00 0.00 0.00 80 1009.2
20260507031125 26 201 4.8 16.1 0.00 0.00 0.00 80 1009.2
20260507030503 26 239 6.4 12.9 0.00 0.00 0.00 80 1009.1
20260507030008 26 179 6.4 16.1 0.00 0.00 0.00 80 1009.1
20260507025508 26 245 6.4 16.1 0.00 0.00 0.00 80 1009.1
20260507025009 27 182 8.0 17.7 0.00 0.00 0.00 80 1009.1
20260507024514 27 208 8.0 17.7 0.00 0.00 0.00 80 1009.0
20260507024016 27 257 6.4 12.9 0.00 0.00 0.00 80 1008.9
20260507023516 27 222 6.4 14.5 0.00 0.00 0.00 80 1008.8
20260507023016 27 272 6.4 14.5 0.00 0.00 0.00 80 1008.9
20260507022518 27 221 6.4 12.9 0.00 0.00 0.00 79 1008.8
20260507022016 27 212 6.4 17.7 0.00 0.00 0.00 79 1008.8
20260507021516 27 184 6.4 17.7 0.00 0.00 0.00 79 1008.8
20260507021020 27 217 9.7 16.1 0.00 0.00 0.00 79 1008.8
20260507020520 27 183 6.4 12.9 0.00 0.00 0.00 79 1008.9
20260507020041 27 202 8.0 14.5 0.00 0.00 0.00 79 1008.8
20260507015522 27 250 8.0 14.5 0.00 0.00 0.00 79 1008.8
20260507015020 27 196 6.4 14.5 0.00 0.00 0.00 79 1008.8
20260507014520 27 192 6.4 12.9 0.00 0.00 0.00 79 1008.8
20260507014020 27 179 6.4 12.9 0.00 0.00 0.00 79 1008.7
20260507013521 27 184 6.4 11.3 0.00 0.00 0.00 79 1008.7
20260507013026 27 207 6.4 11.3 0.00 0.00 0.00 79 1008.6
20260507012527 27 182 4.8 20.9 0.00 0.00 0.00 79 1008.6
20260507012006 27 250 11.3 20.9 0.00 0.00 0.00 79 1008.6
20260507011511 27 251 11.3 17.7 0.00 0.00 0.00 79 1008.4
20260507011008 27 191 8.0 17.7 0.00 0.00 0.00 79 1008.3
20260507010509 27 175 9.7 17.7 0.00 0.00 0.00 79 1008.3
20260507010016 27 253 8.0 16.1 0.00 0.00 0.00 79 1008.3
20260507005516 27 240 6.4 14.5 0.00 0.00 0.00 79 1008.3
20260507005018 27 232 8.0 16.1 0.00 0.00 0.00 78 1008.3
20260507004517 27 232 9.7 16.1 0.00 0.00 0.00 78 1008.2
20260507004017 27 207 6.4 14.5 0.00 0.00 0.00 78 1008.2
20260507003517 27 195 6.4 20.9 0.00 0.00 0.00 77 1008.2
20260507003023 27 223 6.4 14.5 0.00 0.00 0.00 77 1008.2
20260507002522 27 201 8.0 14.5 0.00 0.00 0.00 78 1008.1
20260507002006 27 201 8.0 16.1 0.00 0.00 0.00 77 1008.0
20260507001519 27 184 9.7 14.5 0.00 0.00 0.00 77 1008.0
20260507001009 27 176 6.4 17.7 0.00 0.00 0.00 77 1008.0
20260507000509 27 251 8.0 17.7 0.00 0.00 0.00 77 1007.9
20260507000017 28 211 9.7 16.1 0.00 0.00 0.00 76 1007.8
20260506235519 28 181 6.4 17.7 0.00 0.00 0.00 76 1007.8
20260506235016 28 214 8.0 17.7 0.00 0.00 0.00 76 1007.8
20260506234517 28 192 6.4 22.5 0.00 0.00 0.00 76 1007.8
20260506234017 28 198 8.0 22.5 0.00 0.00 0.00 75 1007.8
20260506233518 28 261 9.7 22.5 0.00 0.00 0.00 75 1007.8
20260506233019 28 223 6.4 17.7 0.00 0.00 0.00 75 1007.7
20260506232517 28 252 9.7 22.5 0.00 0.00 0.00 76 1007.7
20260506232004 28 213 9.7 24.1 0.00 0.00 0.00 75 1007.6
20260506231504 28 265 11.3 24.1 0.00 0.00 0.00 75 1007.7
20260506231008 28 184 9.7 22.5 0.00 0.00 0.00 74 1007.7
20260506230511 28 221 11.3 19.3 0.00 0.00 0.00 74 1007.7
20260506230010 28 199 6.4 20.9 0.00 0.00 0.00 74 1007.7
20260506225512 28 216 9.7 20.9 0.00 0.00 0.00 74 1007.7
20260506225018 29 216 9.7 19.3 0.00 0.00 0.00 73 1007.7
20260506224517 29 163 6.4 17.7 0.00 0.00 0.00 72 1007.8
20260506224019 29 178 6.4 17.7 0.00 0.00 0.00 73 1007.8
20260506223519 29 171 11.3 27.4 0.00 0.00 0.00 72 1007.8
20260506223029 29 183 12.9 27.4 0.00 0.00 0.00 72 1007.9
20260506222532 29 197 12.9 24.1 0.00 0.00 0.00 71 1007.8
20260506222030 30 174 9.7 19.3 0.00 0.00 0.00 71 1007.9
20260506221530 30 207 11.3 19.3 0.00 0.00 0.00 71 1007.9
20260506221007 30 165 9.7 19.3 0.00 0.00 0.00 71 1007.8
20260506220507 30 228 11.3 25.7 0.00 0.00 0.00 71 1008.0
20260506220009 30 184 11.3 25.7 0.00 0.00 0.00 71 1008.0
20260506215510 30 200 9.7 24.1 0.00 0.00 0.00 70 1008.0
20260506215016 30 229 12.9 24.1 0.00 0.00 0.00 70 1008.1
20260506214516 30 173 12.9 20.9 0.00 0.00 0.00 69 1008.1
20260506214016 30 174 9.7 20.9 0.00 0.00 0.00 68 1008.0
20260506213519 30 237 9.7 19.3 0.00 0.00 0.00 67 1008.1
20260506213017 30 161 8.0 22.5 0.00 0.00 0.00 68 1008.1
20260506212515 31 154 9.7 22.5 0.00 0.00 0.00 67 1008.1
20260506212018 31 275 11.3 22.5 0.00 0.00 0.00 66 1008.2
20260506211521 31 238 6.4 16.1 0.00 0.00 0.00 68 1008.2
20260506211006 31 192 6.4 17.7 0.00 0.00 0.00 68 1008.2
20260506210512 30 180 8.0 17.7 0.00 0.00 0.00 68 1008.2
20260506210012 30 192 6.4 24.1 0.00 0.00 0.00 68 1008.3
20260506205508 30 80 8.0 24.1 0.00 0.00 0.00 68 1008.4
20260506205014 31 176 11.3 19.3 0.00 0.00 0.00 68 1008.4
20260506204512 30 225 9.7 16.1 0.00 0.00 0.00 69 1008.5
20260506204019 30 243 4.8 16.1 0.00 0.00 0.00 69 1008.5
20260506203518 30 230 6.4 17.7 0.00 0.00 0.00 69 1008.5
20260506203021 30 263 6.4 20.9 0.00 0.00 0.00 69 1008.6
20260506202523 31 200 9.7 17.7 0.00 0.00 0.00 69 1008.7
20260506202023 31 261 8.0 17.7 0.00 0.00 0.00 69 1008.7
20260506201525 30 215 8.0 17.7 0.00 0.00 0.00 69 1008.7
20260506201011 30 244 6.4 17.7 0.00 0.00 0.00 69 1008.7
20260506200510 30 247 8.0 17.7 0.00 0.00 0.00 68 1008.7
20260506200015 30 202 8.0 16.1 0.00 0.00 0.00 68 1008.8
20260506195515 30 217 6.4 17.7 0.00 0.00 0.00 69 1008.9
20260506195016 30 198 8.0 20.9 0.00 0.00 0.00 69 1009.0
20260506194517 30 228 8.0 20.9 0.00 0.00 0.00 69 1009.0
20260506194023 30 239 8.0 19.3 0.00 0.00 0.00 68 1008.9
20260506193525 30 259 8.0 19.3 0.00 0.00 0.00 67 1009.0
20260506193009 30 224 4.8 16.1 0.00 0.00 0.00 68 1009.0
20260506192506 30 252 8.0 16.1 0.00 0.00 0.00 68 1009.1
20260506192010 31 272 8.0 17.7 0.00 0.00 0.00 68 1009.1
20260506191511 31 221 8.0 17.7 0.00 0.00 0.00 67 1009.1
20260506191017 31 190 8.0 14.5 0.00 0.00 0.00 68 1009.2
20260506190517 30 223 9.7 14.5 0.00 0.00 0.00 67 1009.3
20260506190019 31 252 6.4 16.1 0.00 0.00 0.00 68 1009.4
20260506185518 31 194 8.0 17.7 0.00 0.00 0.00 68 1009.5
20260506185048 31 254 8.0 17.7 0.00 0.00 0.00 68 1009.5
20260506184550 31 201 6.4 16.1 0.00 0.00 0.00 69 1009.7
20260506183619 30 253 8.0 16.1 0.00 0.00 0.00 69 1009.7
20260506183008 30 181 9.7 14.5 0.00 0.00 0.00 68 1009.7
20260506182528 30 217 6.4 14.5 0.00 0.00 0.00 69 1009.7
20260506182054 30 246 6.4 17.7 0.00 0.00 0.00 70 1009.8
20260506181615 30 255 8.0 17.7 0.00 0.00 0.00 70 1009.8
20260506181016 30 232 9.7 14.5 0.00 0.00 0.00 70 1009.9
20260506180536 30 280 6.4 16.1 0.00 0.00 0.00 71 1009.9
20260506180055 30 232 6.4 16.1 0.00 0.00 0.00 72 1009.9
20260506175618 30 227 6.4 19.3 0.00 0.00 0.00 72 1010.0
20260506175016 29 223 6.4 16.1 0.00 0.00 0.00 73 1010.0
20260506174538 29 180 8.0 16.1 0.00 0.00 0.00 73 1010.0
20260506174102 29 264 8.0 19.3 0.00 0.00 0.00 73 1010.1
20260506173622 29 183 9.7 19.3 0.00 0.00 0.00 73 1010.2
20260506173012 29 209 8.0 17.7 0.00 0.00 0.00 72 1010.2
20260506172532 29 232 8.0 14.5 0.00 0.00 0.00 72 1010.2
20260506172104 29 197 9.7 17.7 0.00 0.00 0.00 72 1010.2
20260506171620 29 234 9.7 20.9 0.00 0.00 0.00 72 1010.2
20260506171134 29 277 8.0 19.3 0.00 0.00 0.00 72 1010.2
20260506170517 29 200 6.4 19.3 0.00 0.00 0.00 71 1010.3
20260506170047 29 235 9.7 14.5 0.00 0.00 0.00 71 1010.3
20260506165534 29 215 8.0 14.5 0.00 0.00 0.00 71 1010.2
20260506165056 29 165 8.0 12.9 0.00 0.00 0.00 73 1010.2
20260506164627 28 258 4.8 14.5 0.00 0.00 0.00 73 1010.2
20260506164135 28 257 4.8 14.5 0.00 0.00 0.00 72 1010.2
20260506163518 28 276 6.4 14.5 0.00 0.00 0.00 72 1010.2
20260506163112 28 213 8.0 14.5 0.00 0.00 0.00 71 1010.1
20260506162619 28 232 4.8 11.3 0.00 0.00 0.00 71 1010.1
20260506162008 28 266 6.4 12.9 0.00 0.00 0.00 71 1010.0
20260506161523 28 223 4.8 11.3 0.00 0.00 0.00 71 1009.9
20260506161110 28 254 4.8 11.3 0.00 0.00 0.00 71 1009.9
20260506160630 28 254 4.8 11.3 0.00 0.00 0.00 71 1009.9
20260506160056 28 236 3.2 11.3 0.00 0.00 0.00 71 1009.8
20260506155540 28 215 6.4 11.3 0.00 0.00 0.00 71 1009.8
20260506155002 28 279 4.8 11.3 0.00 0.00 0.00 71 1009.8
20260506154520 28 248 3.2 8.0 0.00 0.00 0.00 72 1009.8
20260506154110 28 278 4.8 11.3 0.00 0.00 0.00 72 1009.7
20260506153626 28 276 6.4 11.3 0.00 0.00 0.00 72 1009.7
20260506153032 28 211 3.2 8.0 0.00 0.00 0.00 73 1009.6
20260506152614 27 236 3.2 8.0 0.00 0.00 0.00 73 1009.6
20260506152136 27 254 3.2 9.7 0.00 0.00 0.00 73 1009.6
20260506151518 27 261 3.2 9.7 0.00 0.00 0.00 74 1009.6
20260506151107 27 227 4.8 8.0 0.00 0.00 0.00 74 1009.6
20260506150626 27 261 3.2 9.7 0.00 0.00 0.00 74 1009.4
20260506150043 27 203 1.6 8.0 0.00 0.00 0.00 74 1009.4
20260506145616 27 251 3.2 8.0 0.00 0.00 0.00 74 1009.4
20260506145030 27 184 3.2 6.4 0.00 0.00 0.00 74 1009.3
20260506144545 26 220 3.2 6.4 0.00 0.00 0.00 73 1009.3
20260506144133 26 230 3.2 6.4 0.00 0.00 0.00 72 1009.3
20260506143521 26 229 3.2 6.4 0.00 0.00 0.00 72 1009.2
20260506143100 26 338 1.6 6.4 0.00 0.00 0.00 72 1009.1
20260506142619 26 328 1.6 4.8 0.00 0.00 0.00 72 1009.1
20260506142011 26 348 1.6 4.8 0.00 0.00 0.00 73 1008.9
20260506141542 25 346 1.6 6.4 0.00 0.00 0.00 73 1008.9
20260506141108 25 351 0.0 6.4 0.00 0.00 0.00 73 1008.8
20260506140624 25 355 3.2 4.8 0.00 0.00 0.00 73 1008.7
20260506140039 25 43 0.0 4.8 0.00 0.00 0.00 75 1008.6
20260506135608 25 53 1.6 3.2 0.00 0.00 0.00 76 1008.6
20260506135134 25 58 0.0 3.2 0.00 0.00 0.00 77 1008.6
20260506134518 25 59 0.0 4.8 0.00 0.00 0.00 77 1008.5
20260506134057 25 59 0.0 4.8 0.00 0.00 0.00 77 1008.5
20260506133610 25 40 0.0 4.8 0.00 0.00 0.00 78 1008.5
20260506133017 25 41 1.6 4.8 0.00 0.00 0.00 78 1008.5
20260506132534 25 34 0.0 3.2 0.00 0.00 0.00 79 1008.5
20260506132058 24 30 0.0 0.0 0.00 0.00 0.00 79 1008.5
20260506131617 24 30 0.0 0.0 0.00 0.00 0.00 79 1008.5
20260506131002 24 30 0.0 0.0 0.00 0.00 0.00 79 1008.5
20260506130526 24 30 0.0 0.0 0.00 0.00 0.00 78 1008.4
20260506130047 24 31 0.0 3.2 0.00 0.00 0.00 78 1008.3
20260506125627 24 30 0.0 3.2 0.00 0.00 0.00 78 1008.2
20260506125017 24 30 0.0 3.2 0.00 0.00 0.00 78 1008.2
20260506124535 24 30 0.0 3.2 0.00 0.00 0.00 78 1008.1
20260506124106 24 30 0.0 1.6 0.00 0.00 0.00 78 1008.1
20260506123618 24 30 0.0 1.6 0.00 0.00 0.00 78 1008.1
20260506123015 24 30 0.0 1.6 0.00 0.00 0.00 78 1008.0
20260506122532 24 30 0.0 3.2 0.00 0.00 0.00 78 1007.9
20260506122059 24 30 0.0 3.2 0.00 0.00 0.00 78 1007.9
20260506121615 25 30 0.0 3.2 0.00 0.00 0.00 79 1007.9
20260506121008 25 15 1.6 3.2 0.00 0.00 0.00 79 1007.8
20260506120522 25 11 0.0 3.2 0.00 0.00 0.00 79 1007.8
20260506120058 25 11 0.0 4.8 0.00 0.00 0.00 79 1007.8
20260506115621 25 11 1.6 4.8 0.00 0.00 0.00 79 1007.7
20260506115010 25 90 0.0 0.0 0.00 0.00 0.00 78 1007.6
20260506114532 25 90 0.0 0.0 0.00 0.00 0.00 78 1007.5
20260506114108 25 90 0.0 0.0 0.00 0.00 0.00 78 1007.4
20260506113626 25 90 0.0 0.0 0.00 0.00 0.00 78 1007.4